period_start,C,m1,H,J0,J1,J2,J3,J4,J5,JA,JB,JC,JD,JJ,JK,JN,#
2018-06-06 00:02:04,0.03,0.83,0.00,22.29,25.00,27.52,13.99,47.08,1024.41,2038.00,3083.00,2875.27,3302.29,599.59,601.64,44.45,0000 0000 0000 0000 000000
2018-06-06 00:07:05,0.01,0.84,0.00,22.37,25.02,27.57,13.99,47.06,1024.37,2037.99,3082.68,2875.00,3302.00,599.99,601.76,44.51,0000 0000 0000 0000 000000
2018-06-06 00:12:07,0.03,0.84,0.00,22.41,25.04,27.59,14.05,47.00,1024.41,2037.98,3082.01,2874.76,3301.47,600.30,602.14,44.56,0000 0000 0000 0000 000000
2018-06-06 00:17:08,0.03,0.84,0.00,22.44,25.07,27.63,14.00,47.10,1024.38,2037.95,3081.24,2874.04,3300.94,600.19,601.90,44.61,0000 0000 0000 0000 000000
2018-06-06 00:22:10,0.02,0.84,0.00,22.47,25.09,27.67,13.95,47.13,1024.33,2037.75,3080.26,2873.55,3300.11,599.68,601.27,44.66,0000 0000 0000 0000 000000
2018-06-06 00:27:11,-0.03,0.84,0.00,22.51,25.12,27.73,14.01,47.02,1024.23,2037.27,3079.91,2873.01,3299.88,599.98,601.43,44.71,0000 0000 0000 0000 000000
2018-06-06 00:32:12,0.02,0.84,0.00,22.50,25.15,27.78,14.10,47.02,1024.05,2037.12,3079.10,2872.85,3299.10,600.65,601.97,44.76,0000 0000 0000 0000 000000
2018-06-06 00:37:13,0.03,0.84,0.00,22.56,25.18,27.82,13.93,47.13,1023.96,2037.04,3078.54,2871.98,3298.72,599.91,601.21,44.81,0000 0000 0000 0000 000000
2018-06-06 00:42:14,0.17,0.85,0.00,22.63,25.21,27.85,13.97,46.96,1023.95,2037.01,3074.89,2870.07,3296.19,599.86,600.97,44.86,0000 0000 0000 0000 000000
2018-06-06 00:47:16,0.04,0.85,0.00,22.69,25.25,27.88,13.98,46.95,1023.95,2037.00,3073.96,2869.09,3295.27,599.93,600.83,44.91,0000 0000 0000 0000 000000
2018-06-06 00:52:17,0.02,0.85,0.00,22.68,25.28,27.91,13.97,47.01,1023.94,2036.99,3073.13,2868.88,3294.77,599.63,600.64,44.96,0000 0000 0000 0000 000000
2018-06-06 00:57:18,0.04,0.86,0.00,22.64,25.31,27.98,13.98,46.94,1023.94,2036.97,3072.41,2868.09,3294.03,600.20,601.29,45.01,0000 0000 0000 0000 000000
2018-06-06 01:02:19,0.01,0.86,0.00,22.59,25.33,27.97,14.09,46.95,1023.94,2036.91,3071.87,2867.96,3293.48,600.48,601.68,45.06,0000 0000 0000 0000 000000
2018-06-06 01:07:21,0.03,0.86,0.00,22.53,25.36,28.03,14.03,46.96,1023.94,2036.85,3071.06,2867.24,3293.01,600.05,601.15,45.11,0000 0000 0000 0000 000000
2018-06-06 01:12:22,0.01,0.86,0.00,22.47,25.37,28.05,13.98,47.02,1023.94,2036.70,3070.54,2866.99,3292.50,599.92,601.34,45.16,0000 0000 0000 0000 000000
2018-06-06 01:17:23,-0.01,0.86,0.00,22.41,25.39,28.08,14.04,47.02,1023.94,2036.32,3070.00,2866.50,3292.01,600.08,601.51,45.21,0000 0000 0000 0000 000000
2018-06-06 01:22:24,0.03,0.86,0.00,22.42,25.40,28.06,14.05,46.94,1023.94,2036.23,3069.41,2866.02,3291.62,600.12,601.66,45.26,0000 0000 0000 0000 000000
2018-06-06 01:27:26,0.01,0.86,0.00,22.43,25.41,28.06,14.06,46.91,1023.94,2036.17,3068.82,2865.90,3291.02,600.29,601.69,45.31,0000 0000 0000 0000 000000
2018-06-06 01:32:27,0.04,0.86,0.00,22.45,25.42,28.07,14.01,46.98,1023.94,2036.09,3068.07,2865.20,3290.57,599.75,601.19,45.37,0000 0000 0000 0000 000000
2018-06-06 01:37:28,0.02,0.86,0.00,22.45,25.42,28.14,13.98,46.99,1023.92,2036.08,3067.40,2864.99,3290.01,599.72,601.11,45.42,0000 0000 0000 0000 000000
2018-06-06 01:42:29,0.06,0.87,0.00,22.43,25.45,28.17,13.94,46.99,1023.92,2036.27,3066.82,2864.62,3289.61,599.65,601.18,45.47,0000 0000 0000 0000 000000
2018-06-06 01:47:30,0.00,0.87,0.00,22.51,25.45,28.14,14.04,47.11,1023.93,2036.13,3066.11,2864.02,3289.02,600.48,601.84,45.52,0000 0000 0000 0000 000000
2018-06-06 01:52:31,0.02,0.87,0.00,22.63,25.47,28.10,14.05,47.06,1023.94,2036.05,3065.69,2863.89,3288.69,600.33,601.30,45.57,0000 0000 0000 0000 000000
2018-06-06 01:57:33,0.03,0.87,0.00,22.71,25.50,28.13,14.02,47.08,1023.94,2036.03,3065.03,2863.14,3288.03,600.13,601.03,45.62,0000 0000 0000 0000 000000
2018-06-06 02:02:34,0.01,0.87,0.00,22.80,25.53,28.15,13.96,47.14,1023.94,2036.00,3064.77,2862.97,3287.70,600.05,600.70,45.67,0000 0000 0000 0000 000000
2018-06-06 02:07:35,0.04,0.87,0.00,22.88,25.56,28.15,14.00,47.17,1023.94,2036.00,3064.02,2862.22,3287.02,600.08,600.58,45.72,0000 0000 0000 0000 000000
2018-06-06 02:12:36,0.03,0.88,0.00,22.91,25.60,28.17,13.95,47.34,1023.94,2035.99,3063.20,2861.86,3286.29,599.80,600.26,45.77,0000 0000 0000 0000 000000
2018-06-06 02:17:38,0.04,0.88,0.00,22.90,25.64,28.21,13.94,47.38,1023.94,2035.96,3062.46,2861.06,3285.65,599.74,600.27,45.82,0000 0000 0000 0000 000000
2018-06-06 02:22:39,0.04,0.88,0.00,22.95,25.68,28.24,13.97,47.22,1023.94,2035.94,3061.58,2860.50,3284.91,600.20,600.59,45.87,0000 0000 0000 0000 000000
2018-06-06 02:27:40,-0.03,0.88,0.00,23.02,25.72,28.32,13.95,47.22,1023.94,2035.39,3060.87,2859.95,3284.18,599.79,599.97,45.92,0000 0000 0000 0000 000000
2018-06-06 02:32:41,0.04,0.88,0.00,23.10,25.76,28.40,13.96,47.32,1023.94,2035.13,3059.90,2859.11,3283.38,599.84,599.92,45.97,0000 0000 0000 0000 000000
2018-06-06 02:37:43,0.05,0.88,0.00,23.13,25.79,28.46,13.92,47.23,1023.88,2035.02,3058.99,2858.44,3282.51,599.82,599.83,46.02,0000 0000 0000 0000 000000
2018-06-06 02:42:44,0.04,0.88,0.00,23.17,25.83,28.51,13.94,47.34,1023.84,2035.00,3058.01,2857.79,3281.64,600.20,600.11,46.07,0000 0000 0000 0000 000000
2018-06-06 02:47:45,0.04,0.89,0.00,23.14,25.87,28.59,13.93,47.21,1023.87,2034.99,3057.06,2857.02,3280.82,599.75,599.82,46.12,0000 0000 0000 0000 000000
2018-06-06 02:52:47,0.04,0.89,0.00,23.11,25.91,28.60,13.96,47.17,1023.89,2034.89,3056.30,2856.25,3280.02,600.04,600.15,46.17,0000 0000 0000 0000 000000
2018-06-06 02:57:48,-0.01,0.89,0.00,23.06,25.94,28.66,14.06,47.19,1023.75,2034.42,3055.26,2855.67,3279.16,600.31,600.41,46.22,0000 0000 0000 0000 000000
2018-06-06 03:02:49,0.03,0.89,0.00,22.71,25.97,28.77,14.02,47.42,1023.49,2034.04,3054.37,2854.99,3278.37,600.14,600.86,46.27,0000 0000 0000 0000 000000
2018-06-06 03:07:51,0.06,0.89,0.00,22.62,25.99,28.84,13.99,47.38,1023.50,2034.00,3053.24,2854.16,3277.49,600.09,600.93,46.32,0000 0000 0000 0000 000000
2018-06-06 03:12:52,0.03,0.89,0.00,22.80,26.01,28.95,14.02,47.32,1023.50,2034.00,3052.58,2853.66,3276.86,600.01,600.50,46.38,0000 0000 0000 0000 000000
2018-06-06 03:17:53,0.03,0.90,0.00,22.88,26.02,28.92,14.05,47.21,1023.54,2033.98,3051.75,2853.01,3276.03,600.33,600.66,46.43,0000 0000 0000 0000 000000
2018-06-06 03:22:55,0.05,0.90,0.00,22.75,26.05,28.79,14.03,47.35,1023.47,2033.97,3050.78,2852.22,3275.14,600.00,600.63,46.48,0000 0000 0000 0000 000000
2018-06-06 03:27:56,0.05,0.90,0.00,22.86,26.06,28.81,14.00,47.23,1023.46,2033.92,3049.67,2851.67,3274.46,600.41,600.70,46.53,0000 0000 0000 0000 000000
2018-06-06 03:32:57,0.03,0.90,0.00,23.06,26.07,28.95,14.03,47.38,1023.44,2033.87,3048.77,2851.02,3273.65,600.30,600.10,46.58,0000 0000 0000 0000 000000
2018-06-06 03:37:58,0.02,0.91,0.00,23.24,26.10,28.81,13.95,47.31,1023.45,2033.62,3047.86,2850.28,3272.86,599.93,599.49,46.63,0000 0000 0000 0000 000000
2018-06-06 03:43:00,0.01,0.91,0.00,23.27,26.12,28.72,13.94,47.27,1023.45,2033.20,3046.88,2849.70,3271.98,599.84,599.35,46.68,0000 0000 0000 0000 000000
2018-06-06 03:48:01,0.03,0.91,0.00,23.31,26.15,28.77,13.90,47.34,1023.45,2033.03,3045.92,2848.95,3271.09,600.00,599.43,46.73,0000 0000 0000 0000 000000
2018-06-06 03:53:02,0.05,0.91,0.00,23.32,26.18,28.86,13.97,47.28,1023.45,2033.00,3044.91,2848.12,3270.20,600.07,599.43,46.78,0000 0000 0000 0000 000000
2018-06-06 03:58:03,0.05,0.91,0.00,23.41,26.21,28.86,13.96,47.38,1023.45,2033.00,3043.98,2847.48,3269.45,600.12,599.27,46.83,0000 0000 0000 0000 000000
2018-06-06 04:03:05,0.05,0.92,0.00,23.55,26.26,28.82,13.89,47.33,1023.45,2033.00,3042.95,2846.74,3268.59,599.79,598.76,46.88,0000 0000 0000 0000 000000
2018-06-06 04:08:06,0.05,0.92,0.00,23.60,26.30,28.89,13.97,47.34,1023.45,2032.97,3041.85,2845.92,3267.60,600.23,599.08,46.93,0000 0000 0000 0000 000000
2018-06-06 04:13:07,0.01,0.92,0.00,23.74,26.34,28.89,13.83,47.25,1023.45,2032.59,3040.76,2845.03,3266.60,599.94,598.52,46.98,0000 0000 0000 0000 000000
2018-06-06 04:18:08,0.02,0.92,0.00,23.94,26.39,28.92,13.90,47.24,1023.45,2032.07,3039.85,2844.17,3265.63,599.88,598.04,47.03,0000 0000 0000 0000 000000
2018-06-06 04:23:10,0.05,0.92,0.00,24.05,26.44,29.05,13.93,47.16,1023.45,2032.01,3038.83,2843.56,3264.84,600.04,597.84,47.08,0000 0000 0000 0000 000000
2018-06-06 04:28:11,0.06,0.93,0.00,24.15,26.49,29.09,13.91,47.16,1023.45,2032.00,3037.81,2842.71,3263.85,600.08,597.77,47.13,0000 0000 0000 0000 000000
2018-06-06 04:33:12,0.05,0.93,0.00,24.36,26.55,29.20,13.97,47.17,1023.45,2031.96,3036.59,2841.80,3262.87,600.15,597.39,47.18,0000 0000 0000 0000 000000
2018-06-06 04:38:14,-0.01,0.93,0.00,24.50,26.60,29.26,13.75,47.11,1023.45,2031.53,3035.66,2840.97,3261.96,599.51,596.54,47.23,0000 0000 0000 0000 000000
2018-06-06 04:43:15,0.03,0.93,0.00,24.62,26.67,29.36,13.80,47.22,1023.45,2031.07,3034.57,2840.08,3260.96,599.79,596.54,47.28,0000 0000 0000 0000 000000
2018-06-06 04:48:16,0.06,0.93,0.00,24.73,26.74,29.45,13.85,47.20,1023.44,2030.99,3033.50,2839.21,3259.89,600.00,596.58,47.34,0000 0000 0000 0000 000000
2018-06-06 04:53:17,0.01,0.94,0.00,24.81,26.80,29.52,13.83,47.26,1023.43,2030.66,3032.25,2838.23,3258.76,599.91,596.34,47.39,0000 0000 0000 0000 000000
2018-06-06 04:58:18,0.03,0.94,0.00,24.86,26.87,29.57,13.91,47.33,1023.45,2030.06,3031.30,2837.37,3257.76,600.06,596.42,47.44,0000 0000 0000 0000 000000
2018-06-06 05:03:20,0.06,0.94,0.00,24.87,26.94,29.70,13.81,47.32,1023.43,2030.00,3030.23,2836.55,3256.74,599.77,595.93,47.49,0000 0000 0000 0000 000000
2018-06-06 05:08:21,0.06,0.94,0.00,24.90,27.01,29.79,13.85,47.23,1023.41,2029.98,3028.98,2835.64,3255.65,600.05,596.25,47.54,0000 0000 0000 0000 000000
2018-06-06 05:13:22,-0.01,0.94,0.00,24.93,27.08,29.85,13.96,47.23,1023.28,2029.50,3027.97,2834.81,3254.65,600.22,596.28,47.59,0000 0000 0000 0000 000000
2018-06-06 05:18:24,0.03,0.94,0.00,24.95,27.15,29.89,13.85,47.23,1023.30,2029.03,3026.82,2833.90,3253.59,600.01,596.04,47.64,0000 0000 0000 0000 000000
2018-06-06 05:23:25,0.06,0.95,0.00,24.98,27.22,29.96,13.82,47.16,1023.20,2028.99,3025.67,2833.06,3252.57,599.86,595.75,47.69,0000 0000 0000 0000 000000
2018-06-06 05:28:26,0.04,0.95,0.00,25.04,27.28,30.02,13.89,47.20,1023.22,2028.83,3024.58,2832.14,3251.48,600.33,596.10,47.74,0000 0000 0000 0000 000000
2018-06-06 05:33:27,0.00,0.95,0.00,25.10,27.34,30.07,13.80,47.13,1023.17,2028.14,3023.40,2831.17,3250.35,599.82,595.58,47.79,0000 0000 0000 0000 000000
2018-06-06 05:38:28,0.05,0.95,0.00,25.17,27.41,30.15,13.79,47.23,1023.19,2028.00,3022.60,2830.23,3249.25,599.75,595.35,47.84,0000 0000 0000 0000 000000
2018-06-06 05:43:30,0.05,0.95,0.00,25.28,27.47,30.19,13.83,47.13,1023.34,2027.96,3021.46,2829.34,3248.21,599.91,595.39,47.89,0000 0000 0000 0000 000000
2018-06-06 05:48:31,-0.01,0.95,0.00,25.38,27.54,30.26,13.83,47.25,1023.35,2027.28,3020.28,2828.48,3247.14,600.11,595.27,47.94,0000 0000 0000 0000 000000
2018-06-06 05:53:32,0.05,0.96,0.00,25.47,27.60,30.30,13.82,47.17,1023.40,2027.00,3019.15,2827.54,3245.99,600.05,595.20,47.99,0000 0000 0000 0000 000000
2018-06-06 05:58:34,0.05,0.96,0.00,25.55,27.67,30.39,13.84,47.23,1023.41,2026.93,3018.01,2826.67,3244.89,600.12,595.01,48.04,0000 0000 0000 0000 000000
2018-06-06 06:03:35,0.01,0.96,0.00,25.64,27.73,30.45,13.91,47.25,1023.35,2026.23,3016.67,2825.60,3243.64,600.21,594.91,48.09,0000 0000 0000 0000 000000
2018-06-06 06:08:36,0.06,0.96,0.00,25.72,27.80,30.52,13.77,47.14,1023.27,2026.00,3015.52,2824.62,3242.50,599.90,594.41,48.15,0000 0000 0000 0000 000000
2018-06-06 06:13:38,0.06,0.97,0.00,25.76,27.87,30.61,13.78,47.23,1023.41,2025.98,3014.38,2823.69,3241.38,599.66,594.14,48.20,0000 0000 0000 0000 000000
2018-06-06 06:18:39,0.00,0.97,0.00,25.81,27.94,30.68,13.81,47.27,1023.36,2025.52,3013.18,2822.82,3240.36,600.00,594.35,48.25,0000 0000 0000 0000 000000
2018-06-06 06:23:40,0.04,0.97,0.00,25.91,28.00,30.74,13.80,47.19,1023.08,2025.03,3011.84,2821.81,3239.13,599.75,593.71,48.30,0000 0000 0000 0000 0000002018-06-06 06:43:44,1.84,1.13,0.00,26.02,28.23,31.02,13.87,46.68,1022.96,2024.05,2968.49,2767.91,3176.97,600.30,593.96,48.50,0000 0000 0000 0000 000000
2018-06-06 06:48:46,0.08,1.15,0.00,26.07,28.29,31.07,13.73,46.83,1022.96,2023.99,2965.54,2764.42,3172.86,599.63,593.23,48.55,0000 0000 0000 0000 000000
2018-06-06 06:53:47,0.03,1.15,0.00,26.11,28.34,31.09,13.82,46.63,1022.96,2023.79,2964.44,2763.58,3171.80,599.71,593.25,48.60,0000 0000 0000 0000 000000
2018-06-06 06:58:48,0.00,1.15,0.30,26.20,28.39,31.13,13.80,46.72,1022.96,2023.24,2963.32,2762.77,3170.84,600.30,593.68,48.65,0000 0000 0000 0000 000000
2018-06-06 07:03:49,0.04,1.15,1.00,26.27,28.44,31.17,13.74,46.69,1022.97,2023.02,2962.29,2761.93,3169.86,599.79,592.99,48.70,0000 0000 0000 0000 000000
2018-06-06 07:08:50,0.06,1.16,1.00,26.38,28.49,31.21,13.78,46.67,1022.96,2023.00,2961.25,2761.07,3168.85,599.96,593.03,48.75,0000 0000 0000 0000 000000
2018-06-06 07:13:52,0.06,1.16,1.00,26.46,28.54,31.25,13.77,46.68,1022.97,2022.97,2960.17,2760.30,3167.92,600.23,593.09,48.80,0000 0000 0000 0000 000000
2018-06-06 07:18:53,0.00,1.16,1.00,26.53,28.59,31.29,13.72,46.73,1022.97,2022.49,2959.04,2759.46,3166.93,599.69,592.39,48.85,0000 0000 0000 0000 000000
2018-06-06 07:23:54,0.03,1.16,1.00,26.48,28.64,31.33,13.73,46.76,1022.96,2022.06,2957.93,2758.70,3165.91,600.01,592.82,48.90,0000 0000 0000 0000 000000
2018-06-06 07:28:56,0.06,1.17,0.67,26.53,28.68,31.38,13.79,46.77,1022.96,2022.00,2956.74,2757.79,3164.86,599.71,592.40,48.95,0000 0000 0000 0000 000000
2018-06-06 07:33:57,0.04,1.17,0.00,26.62,28.73,31.42,13.76,46.82,1022.96,2021.99,2955.70,2757.00,3163.92,599.66,592.20,49.00,0000 0000 0000 0000 000000
2018-06-06 07:38:58,0.05,1.17,0.00,26.73,28.78,31.47,13.70,46.81,1022.94,2021.91,2954.60,2756.16,3162.94,599.71,591.95,49.05,0000 0000 0000 0000 000000
2018-06-06 07:43:59,-0.00,1.17,0.00,26.82,28.82,31.53,13.82,46.84,1022.92,2021.35,2953.57,2755.35,3162.00,600.16,592.23,49.10,0000 0000 0000 0000 000000
2018-06-06 07:49:01,0.04,1.17,0.00,26.91,28.87,31.58,13.76,46.75,1022.95,2021.03,2952.67,2754.63,3160.95,600.16,592.03,49.16,0000 0000 0000 0000 000000
2018-06-06 07:54:02,0.07,1.18,0.00,27.09,28.92,31.64,13.78,46.88,1022.94,2021.00,2951.42,2753.64,3159.88,600.11,591.75,49.21,0000 0000 0000 0000 000000
2018-06-06 07:59:03,0.04,1.18,0.00,27.27,28.97,31.69,13.66,46.74,1022.93,2020.97,2950.33,2752.87,3158.88,599.47,590.77,49.26,0000 0000 0000 0000 000000
2018-06-06 08:04:05,0.03,1.18,0.00,27.34,29.01,31.73,13.72,46.57,1022.96,2020.73,2949.31,2752.05,3157.91,600.26,591.45,49.31,0000 0000 0000 0000 000000
2018-06-06 08:09:06,0.00,1.18,0.00,27.33,29.05,31.77,13.71,46.50,1022.96,2020.18,2948.11,2751.25,3156.97,599.92,591.11,49.36,0000 0000 0000 0000 000000
2018-06-06 08:14:07,0.04,1.18,0.00,27.32,29.09,31.79,13.66,46.35,1022.96,2020.00,2947.02,2750.68,3156.03,599.84,590.98,49.41,0000 0000 0000 0000 000000
2018-06-06 08:19:09,0.07,1.19,0.00,27.34,29.13,31.82,13.72,46.46,1022.96,2020.00,2945.83,2749.80,3154.94,600.02,591.25,49.46,0000 0000 0000 0000 000000
2018-06-06 08:24:10,0.06,1.19,0.00,27.37,29.17,31.86,13.66,46.57,1022.96,2019.99,2944.46,2748.91,3153.86,599.70,590.74,49.51,0000 0000 0000 0000 000000
2018-06-06 08:29:11,0.03,1.19,0.00,27.43,29.21,31.87,13.71,46.41,1022.96,2019.80,2943.57,2748.07,3152.94,600.05,591.11,49.56,0000 0000 0000 0000 000000
2018-06-06 08:34:12,0.09,1.20,0.00,27.47,29.26,31.93,13.72,46.52,1022.96,2019.18,2941.20,2746.57,3151.13,599.93,590.77,49.61,0000 0000 0000 0000 000000
2018-06-06 08:39:13,0.05,1.20,0.00,27.54,29.30,31.96,13.71,46.49,1022.96,2019.00,2939.76,2745.59,3149.92,600.07,590.70,49.66,0000 0000 0000 0000 000000
2018-06-06 08:44:14,0.04,1.20,0.00,27.61,29.35,32.02,13.72,46.35,1022.96,2019.00,2938.89,2744.93,3149.05,600.01,590.48,49.71,0000 0000 0000 0000 000000
2018-06-06 08:49:15,0.06,1.20,0.00,27.67,29.40,32.07,13.60,46.36,1022.96,2018.97,2937.87,2744.09,3148.15,599.63,590.07,49.76,0000 0000 0000 0000 000000
2018-06-06 08:54:17,0.06,1.21,0.00,27.75,29.45,32.13,13.65,46.38,1022.96,2018.87,2936.60,2743.25,3147.17,599.29,589.64,49.81,0000 0000 0000 0000 000000
2018-06-06 08:59:18,0.00,1.21,0.00,27.74,29.49,32.19,13.74,46.39,1022.96,2018.33,2935.51,2742.44,3146.23,600.17,590.48,49.86,0000 0000 0000 0000 000000
2018-06-06 09:04:19,0.04,1.21,0.00,27.77,29.54,32.26,13.59,46.46,1022.97,2018.01,2934.38,2741.72,3145.21,599.12,589.45,49.91,0000 0000 0000 0000 000000
2018-06-06 09:09:20,0.05,1.21,0.00,27.84,29.59,32.29,13.71,46.36,1022.97,2018.00,2933.30,2740.92,3144.24,600.28,590.35,49.96,0000 0000 0000 0000 000000
2018-06-06 09:14:21,0.05,1.22,0.00,27.92,29.64,32.33,13.67,46.40,1022.96,2017.96,2932.34,2740.08,3143.29,600.04,589.83,50.01,0000 0000 0000 0000 000000
2018-06-06 09:19:23,-0.00,1.22,0.00,27.99,29.70,32.36,13.64,46.47,1022.97,2017.44,2931.31,2739.23,3142.29,599.91,589.76,50.06,0000 0000 0000 0000 000000
2018-06-06 09:24:24,0.04,1.22,0.00,28.06,29.75,32.42,13.67,46.31,1022.98,2017.03,2930.52,2738.51,3141.38,600.07,589.68,50.11,0000 0000 0000 0000 000000
2018-06-06 09:29:25,0.04,1.22,0.00,28.16,29.80,32.48,13.70,46.27,1022.96,2016.99,2929.59,2737.83,3140.48,600.23,589.69,50.17,0000 0000 0000 0000 000000
2018-06-06 09:34:27,0.03,1.22,0.00,28.27,29.86,32.55,13.63,46.33,1022.96,2016.82,2928.51,2736.95,3139.49,600.04,589.24,50.22,0000 0000 0000 0000 000000
2018-06-06 09:39:28,0.00,1.22,0.00,28.31,29.92,32.60,13.68,46.25,1022.98,2016.14,2927.49,2736.04,3138.47,600.43,589.62,50.27,0000 0000 0000 0000 000000
2018-06-06 09:44:29,0.06,1.22,0.00,28.37,29.99,32.67,13.63,46.31,1022.97,2016.01,2926.11,2735.15,3137.39,599.77,588.84,50.32,0000 0000 0000 0000 000000
2018-06-06 09:49:30,0.06,1.23,0.00,28.46,30.05,32.73,13.59,46.34,1022.98,2016.00,2925.05,2734.32,3136.37,599.39,588.33,50.37,0000 0000 0000 0000 000000
2018-06-06 09:54:32,0.06,1.23,0.00,28.52,30.12,32.81,13.65,46.27,1022.97,2015.96,2923.89,2733.42,3135.31,599.63,588.51,50.42,0000 0000 0000 0000 000000
2018-06-06 09:59:33,-0.01,1.23,0.00,28.59,30.19,32.89,13.61,46.22,1022.97,2015.35,2922.78,2732.50,3134.36,600.02,588.59,50.47,0000 0000 0000 0000 000000
2018-06-06 10:04:34,0.04,1.23,0.00,28.58,30.26,32.98,13.65,46.33,1022.96,2015.01,2921.74,2731.68,3133.39,600.02,588.57,50.52,0000 0000 0000 0000 000000
2018-06-06 10:09:35,0.04,1.24,0.00,28.50,30.32,33.04,13.68,46.22,1022.99,2014.89,2920.73,2730.86,3132.32,600.17,588.95,50.57,0000 0000 0000 0000 000000
2018-06-06 10:14:37,0.00,1.24,0.00,28.42,30.39,33.08,13.64,46.37,1023.01,2014.34,2919.61,2729.98,3131.38,599.87,588.90,50.62,0000 0000 0000 0000 000000
2018-06-06 10:19:38,0.05,1.24,0.00,28.40,30.45,33.09,13.60,46.24,1023.00,2014.01,2918.40,2729.09,3130.28,599.96,589.13,50.67,0000 0000 0000 0000 000000
2018-06-06 10:24:39,0.06,1.24,0.00,28.36,30.50,33.00,13.63,46.43,1023.05,2013.99,2917.41,2728.31,3129.31,599.79,588.96,50.72,0000 0000 0000 0000 000000
2018-06-06 10:29:41,0.04,1.24,0.00,28.29,30.56,32.95,13.80,46.40,1023.06,2013.81,2916.41,2727.55,3128.41,600.22,589.59,50.77,0000 0000 0000 0000 000000
2018-06-06 10:34:42,-0.01,1.24,0.00,28.26,30.61,33.11,13.64,46.37,1023.00,2013.17,2915.39,2726.85,3127.43,600.09,589.39,50.82,0000 0000 0000 0000 000000
2018-06-06 10:39:43,0.04,1.24,0.00,28.25,30.65,33.15,13.66,46.30,1022.99,2013.01,2914.43,2726.04,3126.59,600.08,589.39,50.87,0000 0000 0000 0000 000000
2018-06-06 10:44:44,0.06,1.25,0.00,28.24,30.70,33.25,13.67,46.31,1022.99,2013.00,2913.43,2725.28,3125.72,599.76,589.06,50.92,0000 0000 0000 0000 000000
2018-06-06 10:49:46,0.05,1.25,0.00,28.22,30.74,33.41,13.71,46.33,1022.98,2012.99,2912.35,2724.56,3124.81,600.16,589.48,50.97,0000 0000 0000 0000 000000
2018-06-06 10:54:47,0.03,1.25,0.00,28.20,30.78,33.72,13.71,46.34,1022.96,2012.92,2911.43,2723.90,3123.91,600.10,589.33,51.02,0000 0000 0000 0000 000000
2018-06-06 10:59:48,0.03,1.26,0.00,28.20,30.82,34.08,13.74,46.41,1022.96,2012.62,2910.36,2723.08,3123.01,599.79,589.20,51.08,0000 0000 0000 0000 000000
2018-06-06 11:04:50,0.01,1.25,0.00,28.18,30.87,34.34,13.75,46.44,1022.96,2012.07,2909.34,2722.31,3122.09,600.12,589.47,51.13,0000 0000 0000 0000 000000
2018-06-06 11:09:51,0.05,1.26,0.00,28.18,30.91,34.44,13.74,46.39,1022.96,2012.01,2908.35,2721.67,3121.19,599.90,589.33,51.18,0000 0000 0000 0000 000000
2018-06-06 11:14:52,0.05,1.26,0.00,28.17,30.95,34.49,13.71,46.37,1022.96,2012.00,2907.31,2720.92,3120.29,600.08,589.46,51.23,0000 0000 0000 0000 000000
2018-06-06 11:19:53,0.06,1.26,0.00,28.20,30.99,34.56,13.64,46.36,1022.98,2011.98,2906.20,2720.07,3119.33,599.57,588.85,51.28,0000 0000 0000 0000 000000
2018-06-06 11:24:55,0.05,1.27,0.00,28.24,31.03,34.56,13.74,46.45,1022.98,2011.95,2905.27,2719.36,3118.54,599.93,589.35,51.33,0000 0000 0000 0000 000000
2018-06-06 11:29:56,0.03,1.27,0.00,28.28,31.06,34.56,13.78,46.48,1022.98,2011.93,2904.18,2718.82,3117.82,600.00,589.18,51.38,0000 0000 0000 0000 000000
2018-06-06 11:34:57,0.03,1.27,0.00,28.32,31.09,34.61,13.71,46.41,1022.97,2011.77,2903.25,2718.04,3116.98,599.71,588.90,51.43,0000 0000 0000 0000 000000
2018-06-06 11:39:59,0.04,1.27,0.00,28.35,31.11,34.48,13.73,46.50,1022.97,2011.41,2902.20,2717.29,3116.08,599.82,588.96,51.48,0000 0000 0000 0000 000000
2018-06-06 11:45:00,0.04,1.27,0.00,28.35,31.12,34.23,13.69,46.56,1022.96,2011.21,2900.89,2716.45,3115.07,600.00,589.09,51.53,0000 0000 0000 0000 000000
2018-06-06 11:50:01,0.07,1.28,0.00,28.34,31.15,34.14,13.69,46.51,1022.96,2011.06,2899.46,2715.56,3113.92,599.75,588.87,51.58,0000 0000 0000 0000 000000
2018-06-06 11:55:03,0.07,1.28,0.00,28.28,31.15,34.03,13.63,46.45,1022.96,2011.07,2897.88,2714.67,3112.84,599.87,589.20,51.63,0000 0000 0000 0000 000000
2018-06-06 12:00:04,0.08,1.28,0.00,28.26,31.15,33.95,13.78,46.57,1022.95,2011.02,2896.25,2713.53,3111.55,600.16,589.40,51.68,0000 0000 0000 0000 000000
2018-06-06 12:05:05,0.12,1.29,0.00,27.79,31.15,33.67,13.70,46.72,1022.92,2011.00,2894.13,2711.95,3109.75,599.99,590.21,51.73,0000 0000 0000 0000 000000
2018-06-06 12:10:06,0.14,1.30,0.00,27.77,31.15,33.47,13.72,46.63,1022.81,2011.00,2891.52,2710.29,3107.73,600.08,590.09,51.78,0000 0000 0000 0000 000000
2018-06-06 12:15:08,0.15,1.31,0.00,27.74,31.12,33.29,13.77,46.68,1022.61,2011.00,2888.68,2708.36,3105.54,600.10,590.20,51.83,0000 0000 0000 0000 000000
2018-06-06 12:20:09,0.16,1.31,0.00,27.78,31.10,33.19,13.61,46.59,1022.68,2011.00,2885.63,2706.34,3103.19,599.92,589.99,51.88,0000 0000 0000 0000 000000
2018-06-06 12:25:10,0.14,1.32,0.00,27.73,31.06,33.03,13.75,46.68,1022.64,2011.00,2882.86,2704.47,3100.99,600.03,590.36,51.93,0000 0000 0000 0000 000000
2018-06-06 12:30:12,0.12,1.33,0.00,27.70,31.03,32.91,13.68,46.67,1022.61,2011.00,2880.60,2702.88,3099.16,600.07,590.31,51.99,0000 0000 0000 0000 000000
2018-06-06 12:35:13,0.13,1.34,0.00,27.48,30.99,32.79,13.80,46.73,1022.55,2011.00,2878.36,2701.17,3097.19,600.09,590.66,52.04,0000 0000 0000 0000 000000
2018-06-06 12:40:14,0.12,1.34,0.00,27.51,30.94,32.92,13.78,46.89,1022.49,2011.01,2876.26,2699.64,3095.36,600.14,590.64,52.09,0000 0000 0000 0000 000000
2018-06-06 12:45:15,0.10,1.35,0.00,27.57,30.90,32.88,13.76,46.72,1022.49,2011.03,2874.34,2698.25,3093.68,600.11,590.48,52.14,0000 0000 0000 0000 000000
2018-06-06 12:50:16,0.12,1.35,0.00,27.57,30.86,33.00,13.68,46.73,1022.49,2011.30,2872.68,2697.03,3092.32,600.01,590.39,52.19,0000 0000 0000 0000 000000
2018-06-06 12:55:18,0.11,1.36,0.00,27.48,30.82,32.85,13.74,46.73,1022.48,2011.78,2871.26,2696.05,3091.13,600.22,590.76,52.24,0000 0000 0000 0000 000000
2018-06-06 13:00:19,0.08,1.36,0.00,27.48,30.78,32.89,13.81,46.92,1022.48,2011.97,2869.90,2695.08,3090.00,600.18,590.73,52.29,0000 0000 0000 0000 000000
2018-06-06 13:05:21,0.08,1.37,0.00,27.51,30.75,33.01,13.69,46.78,1022.48,2011.98,2868.46,2694.06,3088.81,599.98,590.52,52.34,0000 0000 0000 0000 000000
2018-06-06 13:10:22,0.19,1.38,0.00,27.56,30.71,33.05,13.76,46.80,1022.48,2011.99,2865.48,2692.00,3086.42,599.98,590.31,52.39,0000 0000 0000 0000 000000